Weather History for Yankton, SD

Change the Weather History Date:

Thursday, February 28, 2013

  Actual Average Record
Temperature  
Mean Temperature 24 °F -  
Max Temperature 26 °F 40 °F 61 °F (1974)
Min Temperature 21 °F 21 °F -23 °F (1962)
Degree Days  
Heating Degree Days 42    
Moisture  
Dew Point 20 °F    
Average Humidity 82    
Maximum Humidity 93    
Minimum Humidity 74    
Precipitation  
Precipitation 0.00 in - - ()
Sea Level Pressure  
Sea Level Pressure 30.22 in    
Wind  
Wind Speed 17 mph (NW)    
Max Wind Speed 22 mph    
Max Gust Speed 30 mph    
Visibility 10 miles    
Events      
Averages and records for this station are not official NWS values.
T = Trace of Precipitation, MM = Missing Value Source: NWS Daily Summary

Daily Weather History Graph

Daily Weather History Graph

Search for Another Location

Airport:

Trip Planner

Search our weather history database for the weather conditions in past years. The results will help you decide how hot, cold, wet, or windy it might be!

Date:

Astronomy

Feb. 28, 2013 Rise Set
Actual Time 7:06 AM CST 6:18 PM CST
Civil Twilight 6:38 AM CST 6:46 PM CST
Nautical Twilight 6:05 AM CST 7:19 PM CST
Astronomical Twilight 5:32 AM CST 7:52 PM CST
Moon 9:53 PM CST (2/28) 8:11 AM CST (2/28)
Length of Visible Light 12h 08m
Length of Day
11h 11m
Waning Gibbous, 90% of the Moon is Illuminated
Feb 28
Waning Gibbous
Mar 4
Last Quarter
Mar 11
New
Mar 19
First Quarter
Mar 27
Full

Hourly Weather History & Observations

Time (CST) Temp. Windchill Dew Point Humidity Pressure Visibility Wind Dir Wind Speed Gust Speed Precip Events Conditions
12:15 AM 26.6 °F 12.7 °F 21.2 °F 80% 30.15 in 10.0 mi NNW 20.7 mph 29.9 mph N/A   Overcast
12:35 AM 26.6 °F 12.4 °F 21.2 °F 80% 30.15 in 10.0 mi NNW 21.9 mph 28.8 mph N/A   Overcast
1:15 AM 26.6 °F 13.4 °F 21.2 °F 80% 30.15 in 10.0 mi NW 18.4 mph 23.0 mph N/A   Overcast
1:35 AM 26.6 °F 13.8 °F 21.2 °F 80% 30.15 in 10.0 mi NW 17.3 mph 25.3 mph N/A   Overcast
1:55 AM 26.6 °F 13.8 °F 23.0 °F 86% 30.15 in 10.0 mi NW 17.3 mph - N/A   Overcast
2:15 AM 26.6 °F 13.8 °F 21.2 °F 80% 30.16 in 10.0 mi NW 17.3 mph - N/A   Overcast
2:35 AM 26.6 °F 13.1 °F 21.2 °F 80% 30.16 in 10.0 mi NW 19.6 mph 24.2 mph N/A   Overcast
2:55 AM 24.8 °F 11.5 °F 21.2 °F 86% 30.16 in 10.0 mi NW 17.3 mph 25.3 mph N/A   Overcast
3:15 AM 24.8 °F 11.1 °F 21.2 °F 86% 30.16 in 10.0 mi NW 18.4 mph 24.2 mph N/A   Overcast
3:55 AM 24.8 °F 11.1 °F 21.2 °F 86% 30.16 in 10.0 mi NW 18.4 mph - N/A   Overcast
4:35 AM 24.8 °F 10.7 °F 21.2 °F 86% 30.16 in 10.0 mi NW 19.6 mph 24.2 mph N/A   Overcast
4:55 AM 24.8 °F 11.9 °F 21.2 °F 86% 30.17 in 10.0 mi NW 16.1 mph 27.6 mph N/A   Overcast
5:15 AM 24.8 °F 10.3 °F 21.2 °F 86% 30.17 in 10.0 mi NW 20.7 mph 26.5 mph N/A   Overcast
5:35 AM 24.8 °F 10.7 °F 21.2 °F 86% 30.18 in 10.0 mi NW 19.6 mph 25.3 mph N/A   Overcast
5:55 AM 24.8 °F 11.9 °F 21.2 °F 86% 30.18 in 10.0 mi NW 16.1 mph 23.0 mph N/A   Overcast
6:15 AM 24.8 °F 11.9 °F 21.2 °F 86% 30.18 in 10.0 mi NW 16.1 mph - N/A   Overcast
6:35 AM 24.8 °F 11.1 °F 21.2 °F 86% 30.18 in 10.0 mi NW 18.4 mph - N/A   Overcast
6:55 AM 24.8 °F 11.9 °F 19.4 °F 80% 30.19 in 10.0 mi NW 16.1 mph - N/A   Overcast
7:15 AM 23.0 °F 9.6 °F 19.4 °F 86% 30.19 in 10.0 mi NW 16.1 mph - N/A   Overcast
7:35 AM 23.0 °F 9.2 °F 19.4 °F 86% 30.20 in 10.0 mi NW 17.3 mph 23.0 mph N/A   Overcast
7:55 AM 23.0 °F 10.6 °F 19.4 °F 86% 30.21 in 5.0 mi NW 13.8 mph 19.6 mph N/A   Overcast
8:15 AM 23.0 °F 9.6 °F 19.4 °F 86% 30.21 in 10.0 mi NW 16.1 mph 21.9 mph N/A   Overcast
8:35 AM 21.2 °F 5.6 °F 19.4 °F 93% 30.22 in 10.0 mi NW 20.7 mph - N/A   Overcast
8:55 AM 21.2 °F 7.3 °F 19.4 °F 93% 30.23 in 7.0 mi NW 16.1 mph - N/A   Overcast
9:15 AM 21.2 °F 8.9 °F 19.4 °F 93% 30.23 in 10.0 mi NW 12.7 mph - N/A   Overcast
9:35 AM 21.2 °F 6.4 °F 19.4 °F 93% 30.23 in 10.0 mi NW 18.4 mph 23.0 mph N/A   Overcast
9:55 AM 23.0 °F 10.1 °F 19.4 °F 86% 30.24 in 10.0 mi WNW 15.0 mph - N/A   Overcast
10:15 AM 21.2 °F 7.8 °F 19.4 °F 93% 30.24 in 10.0 mi NW 15.0 mph 20.7 mph N/A   Overcast
10:35 AM 23.0 °F 10.6 °F 19.4 °F 86% 30.25 in 10.0 mi WNW 13.8 mph - N/A   Overcast
10:55 AM 23.0 °F 9.2 °F 19.4 °F 86% 30.25 in 10.0 mi WNW 17.3 mph - N/A   Overcast
11:15 AM 23.0 °F 10.1 °F 19.4 °F 86% 30.25 in 10.0 mi WNW 15.0 mph - N/A   Overcast
11:35 AM 24.8 °F 11.9 °F 19.4 °F 80% 30.24 in 10.0 mi WNW 16.1 mph - N/A   Overcast
11:55 AM 24.8 °F 12.9 °F 19.4 °F 80% 30.24 in 10.0 mi WNW 13.8 mph - N/A   Overcast
12:15 PM 24.8 °F 11.5 °F 19.4 °F 80% 30.24 in 10.0 mi NNW 17.3 mph 20.7 mph N/A   Overcast
12:35 PM 24.8 °F 12.4 °F 19.4 °F 80% 30.25 in 10.0 mi NNW 15.0 mph 21.9 mph N/A   Overcast
12:55 PM 24.8 °F 11.5 °F 19.4 °F 80% 30.24 in 10.0 mi NW 17.3 mph - N/A   Overcast
1:15 PM 24.8 °F 11.9 °F 19.4 °F 80% 30.24 in 10.0 mi NNW 16.1 mph - N/A   Overcast
1:35 PM 24.8 °F 11.5 °F 19.4 °F 80% 30.23 in 10.0 mi NNW 17.3 mph - N/A   Overcast
1:55 PM 24.8 °F 11.9 °F 19.4 °F 80% 30.23 in 10.0 mi NNW 16.1 mph 21.9 mph N/A   Overcast
2:15 PM 24.8 °F 11.9 °F 19.4 °F 80% 30.23 in 10.0 mi NNW 16.1 mph - N/A   Overcast
2:35 PM 26.6 °F 13.8 °F 19.4 °F 74% 30.22 in 10.0 mi NW 17.3 mph - N/A   Overcast
2:55 PM 26.6 °F 13.8 °F 19.4 °F 74% 30.22 in 10.0 mi NNW 17.3 mph - N/A   Overcast
3:15 PM 26.6 °F 14.7 °F 19.4 °F 74% 30.22 in 10.0 mi NW 15.0 mph 20.7 mph N/A   Overcast
3:35 PM 26.6 °F 13.8 °F 19.4 °F 74% 30.22 in 10.0 mi NNW 17.3 mph 24.2 mph N/A   Overcast
3:55 PM 26.6 °F 14.7 °F 19.4 °F 74% 30.22 in 10.0 mi NNW 15.0 mph 21.9 mph N/A   Overcast
4:15 PM 26.6 °F 13.4 °F 19.4 °F 74% 30.22 in 10.0 mi NNW 18.4 mph 23.0 mph N/A   Overcast
4:35 PM 26.6 °F 15.2 °F 19.4 °F 74% 30.22 in 10.0 mi NNW 13.8 mph 21.9 mph N/A   Overcast
4:55 PM 26.6 °F 13.1 °F 19.4 °F 74% 30.22 in 10.0 mi NNW 19.6 mph - N/A   Overcast
5:15 PM 26.6 °F 15.7 °F 19.4 °F 74% 30.22 in 10.0 mi NNW 12.7 mph - N/A   Overcast
5:35 PM 24.8 °F 11.9 °F 19.4 °F 80% 30.23 in 10.0 mi NNW 16.1 mph 19.6 mph N/A   Overcast
5:55 PM 24.8 °F 12.4 °F 19.4 °F 80% 30.23 in 10.0 mi NNW 15.0 mph - N/A   Overcast
6:15 PM 24.8 °F 13.4 °F 19.4 °F 80% 30.24 in 10.0 mi NNW 12.7 mph - N/A   Overcast
6:35 PM 24.8 °F 12.4 °F 19.4 °F 80% 30.24 in 10.0 mi NNW 15.0 mph - N/A   Overcast
6:55 PM 24.8 °F 14.0 °F 19.4 °F 80% 30.24 in 10.0 mi NNW 11.5 mph - N/A   Overcast
7:15 PM 24.8 °F 14.0 °F 19.4 °F 80% 30.24 in 10.0 mi NNW 11.5 mph - N/A   Overcast
7:35 PM 24.8 °F 14.0 °F 19.4 °F 80% 30.25 in 10.0 mi NNW 11.5 mph - N/A   Overcast
7:55 PM 24.8 °F 15.3 °F 19.4 °F 80% 30.25 in 10.0 mi NNW 9.2 mph - N/A   Overcast
8:15 PM 24.8 °F 16.1 °F 19.4 °F 80% 30.25 in 10.0 mi NNW 8.1 mph - N/A   Overcast
8:35 PM 24.8 °F 15.3 °F 19.4 °F 80% 30.25 in 10.0 mi NNW 9.2 mph - N/A   Overcast
8:55 PM 24.8 °F 14.6 °F 19.4 °F 80% 30.25 in 10.0 mi NNW 10.4 mph - N/A   Overcast
9:15 PM 24.8 °F 16.1 °F 19.4 °F 80% 30.25 in 10.0 mi NNW 8.1 mph - N/A   Overcast
9:35 PM 24.8 °F 14.0 °F 19.4 °F 80% 30.25 in 10.0 mi NNW 11.5 mph - N/A   Overcast
9:55 PM 24.8 °F 12.4 °F 19.4 °F 80% 30.25 in 10.0 mi NNW 15.0 mph 18.4 mph N/A   Overcast
10:15 PM 24.8 °F 14.6 °F 19.4 °F 80% 30.25 in 10.0 mi NNW 10.4 mph - N/A   Overcast
10:35 PM 24.8 °F 14.0 °F 17.6 °F 74% 30.25 in 10.0 mi NNW 11.5 mph - N/A   Overcast
10:55 PM 24.8 °F 14.0 °F 17.6 °F 74% 30.25 in 10.0 mi NNW 11.5 mph - N/A   Overcast
11:35 PM 24.8 °F 14.6 °F 17.6 °F 74% 30.25 in 10.0 mi NNW 10.4 mph - N/A   Overcast
11:55 PM 23.0 °F 13.1 °F 17.6 °F 80% 30.25 in 10.0 mi NNW 9.2 mph - N/A   Overcast